Weather History for KTLH - July, 2012

Change the Weather History Date:

Thursday, July 26, 2012

  Actual Average Record
Temperature  
Mean Temperature 80 °F 82 °F  
Max Temperature 89 °F 92 °F 99 °F (1983)
Min Temperature 71 °F 72 °F 66 °F (1915)
Degree Days  
Heating Degree Days 0    
Month to date heating degree days 0  
Since 1 June heating degree days 0  
Since 1 July heating degree days 0  
Cooling Degree Days 15    
Month to date cooling degree days 475  
Year to date cooling degree days 1707  
Since 1 June cooling degree days 930  
Growing Degree Days 31 (Base 50)    
Moisture  
Dew Point 74 °F    
Average Humidity 84    
Maximum Humidity 100    
Minimum Humidity 68    
Precipitation  
Precipitation 0.01 in 0.24 in 2.39 in (1954)
Month to date precipitation 3.42 5.95  
Year to date precipitation 33.46 35.34  
Sea Level Pressure  
Sea Level Pressure 29.98 in    
Wind  
Wind Speed 4 mph (WSW)    
Max Wind Speed 20 mph    
Max Gust Speed 24 mph    
Visibility 8 miles    
Events Rain    
T = Trace of Precipitation, MM = Missing Value Source: NWS Daily Summary

Daily Weather History Graph

Daily Weather History Graph

Search for Another Location

Airport or City:

Trip Planner

Search our weather history database for the weather conditions in past years. The results will help you decide how hot, cold, wet, or windy it might be!

Date:

Astronomy

Jul. 26, 2012 Rise Set
Actual Time 6:52 AM EDT 8:35 PM EDT
Civil Twilight 6:25 AM EDT 9:01 PM EDT
Nautical Twilight 5:54 AM EDT 9:33 PM EDT
Astronomical Twilight 5:20 AM EDT 10:06 PM EDT
Moon 2:24 PM EDT (7/26) 12:38 AM EDT (7/26)
Length of Visible Light 14h 35m
Length of Day
13h 42m
First Quarter, 53% of the Moon is Illuminated
Jul 26
First Quarter
Aug 1
Full
Aug 9
Last Quarter
Aug 17
New
Aug 24
First Quarter

Hourly Weather History & Observations

Time (EDT) Temp. Heat Index Dew Point Humidity Pressure Visibility Wind Dir Wind Speed Gust Speed Precip Events Conditions
12:45 AM 75.2 °F - 71.6 °F 89% 29.97 in 10.0 mi Calm Calm - N/A   Mostly Cloudy
12:53 AM 75.9 °F - 72.0 °F 87% 29.97 in 10.0 mi Calm Calm - N/A   Mostly Cloudy
1:41 AM 75.2 °F - 73.4 °F 94% 29.95 in 9.0 mi Calm Calm - N/A   Scattered Clouds
1:53 AM 75.9 °F - 73.0 °F 91% 29.95 in 8.0 mi Calm Calm - N/A   Scattered Clouds
2:53 AM 75.9 °F - 73.0 °F 91% 29.94 in 8.0 mi Calm Calm - N/A   Partly Cloudy
3:18 AM 75.2 °F - 73.4 °F 94% 29.95 in 6.0 mi SSE 3.5 mph - N/A   Mostly Cloudy
3:53 AM 75.9 °F - 73.0 °F 91% 29.94 in 6.0 mi Calm Calm - N/A   Overcast
4:33 AM 75.2 °F - 73.4 °F 94% 29.95 in 3.0 mi Calm Calm - N/A   Overcast
4:53 AM 75.0 °F - 73.0 °F 94% 29.95 in 3.0 mi Calm Calm - N/A   Overcast
5:01 AM 75.2 °F - 73.4 °F 94% 29.95 in 1.8 mi Calm Calm - N/A   Overcast
5:13 AM 75.2 °F - 73.4 °F 94% 29.95 in 2.0 mi Calm Calm - N/A   Overcast
5:20 AM 75.2 °F - 73.4 °F 94% 29.95 in 2.5 mi Calm Calm - N/A   Mostly Cloudy
5:27 AM 75.2 °F - 73.4 °F 94% 29.95 in 4.0 mi Calm Calm - N/A   Mostly Cloudy
5:35 AM 75.2 °F - 73.4 °F 94% 29.95 in 5.0 mi Calm Calm - N/A   Scattered Clouds
5:53 AM 73.9 °F - 73.0 °F 97% 29.95 in 5.0 mi Calm Calm - N/A   Scattered Clouds
6:53 AM 75.9 °F - 73.0 °F 91% 29.96 in 9.0 mi Calm Calm - N/A   Scattered Clouds
7:53 AM 75.0 °F - 73.0 °F 94% 29.98 in 4.0 mi Calm Calm - N/A   Mostly Cloudy
8:53 AM 81.0 °F 87.3 °F 75.9 °F 85% 29.97 in 10.0 mi NW 8.1 mph - N/A   Partly Cloudy
9:53 AM 82.9 °F 90.2 °F 75.0 °F 77% 30.01 in 10.0 mi WNW 6.9 mph - N/A   Scattered Clouds
10:53 AM 86.0 °F 96.0 °F 75.9 °F 72% 30.00 in 10.0 mi NW 9.2 mph - N/A   Partly Cloudy
11:53 AM 86.0 °F 96.0 °F 75.9 °F 72% 30.01 in 10.0 mi WNW 5.8 mph - N/A   Clear
12:53 PM 87.1 °F 97.3 °F 75.9 °F 69% 30.00 in 10.0 mi WNW 3.5 mph - N/A   Partly Cloudy
1:53 PM 87.1 °F 98.8 °F 77.0 °F 72% 29.98 in 10.0 mi Calm Calm - N/A   Clear
2:53 PM 88.0 °F 100.2 °F 77.0 °F 70% 29.99 in 10.0 mi SW 5.8 mph - N/A   Partly Cloudy
3:51 PM 84.2 °F 96.1 °F 78.8 °F 84% 29.99 in 10.0 mi South 12.7 mph 20.7 mph N/A   Mostly Cloudy
3:53 PM 84.9 °F 96.6 °F 78.1 °F 80% 29.99 in 10.0 mi South 15.0 mph 20.7 mph N/A   Mostly Cloudy
4:12 PM 82.4 °F 89.5 °F 75.2 °F 79% 29.99 in 10.0 mi South 13.8 mph 19.6 mph N/A   Overcast
4:46 PM 80.6 °F 86.2 °F 75.2 °F 84% 29.99 in 9.0 mi SW 17.3 mph 24.2 mph 0.00 in Rain Light Rain
4:53 PM 80.1 °F 85.4 °F 75.9 °F 87% 29.99 in 9.0 mi SW 15.0 mph 24.2 mph 0.00 in Rain Light Rain
5:05 PM 78.8 °F - 75.2 °F 89% 29.98 in 10.0 mi SW 16.1 mph - 0.00 in Rain Light Rain
5:53 PM 77.0 °F - 72.0 °F 84% 30.03 in 10.0 mi West 8.1 mph - 0.00 in   Mostly Cloudy
6:24 PM 77.0 °F - 71.6 °F 83% 30.04 in 8.0 mi NW 11.5 mph 21.9 mph 0.01 in Rain Light Rain
6:53 PM 77.0 °F - 73.0 °F 88% 30.02 in 10.0 mi West 9.2 mph - 0.01 in   Mostly Cloudy
7:22 PM 75.2 °F - 73.4 °F 94% 30.02 in 10.0 mi Calm Calm - N/A   Mostly Cloudy
7:53 PM 75.0 °F - 72.0 °F 90% 29.99 in 10.0 mi WNW 3.5 mph - N/A   Clear
8:53 PM 73.9 °F - 71.1 °F 91% 29.97 in 10.0 mi WSW 8.1 mph - N/A   Scattered Clouds
9:53 PM 73.0 °F - 71.1 °F 93% 29.97 in 10.0 mi West 3.5 mph - N/A   Scattered Clouds
10:53 PM 73.0 °F - 70.0 °F 90% 29.99 in 10.0 mi West 3.5 mph - N/A   Partly Cloudy
11:53 PM 72.0 °F - 69.1 °F 91% 29.97 in 10.0 mi Calm Calm - N/A   Clear